NINGXIA-1 9 (49021 NORAD) Tracking and Keplerian Element Data

This shows tracking and keplerian element data for the satellite.

Feedback or suggestion? Click here.




ElementValue
Catalog49021
NameNINGXIA-1 9
Epoch Orbit288
Epoch Day210.96835903
Epoch Year2021
RAAN359.296
Inclination45.0056
Eccentricity0.0008673
Argument of Perigee357.7951
Mean Anonmoly2.2847
Mean Motion14.08896845
Decay Rate-3.47E-06
L11 49021U 21064D 21210.96835903 -.00000347 00000-0 -12313-3 0 9997
L22 49021 45.0056 359.2960 0008673 357.7951 2.2847 14.08896845 2887

Live tracking and technical data element details for NINGXIA-1 9 (NORAD 49021). NINGXIA-1 9 can be tracked NOW for your location showing map with azimuth and elevation plus other details from your city location.

Track the satellite on the map from your city or location and see movement details for azimuth, elevation, latitude, longitude, range, height, and movement on the map or in text.







IsCatalogInMostPopularTable: catalog: 49021, numindb: 1
Update: records affected: 1



GetName: 49021 NINGXIA-1 9

Hit Count: updated at: Sat, 31 Jul 2021 16:18:18 GMT